Theta_e
317 316 314 314 314 313 313 312 312 311 310 309 307 308 304 302 302 311 316 318 307 297 291 303 301 297 295 301 299 299 298 297 298 298 298 297 298 297 296 297 295 297 295 295 293 293 291 293 292 293 293 295 297 297 296 298 296 292 291 296 295 314 291 290 293 294 296 297 296 299 300 300 296 295 294 294 293 292 291 290 295 297 299 296 294 294 300
317 315 314 314 314 313 313 312 312 311 310 307 306 305 302 303 303 308 316 312 307 299 294 292 292 296 299 298 298 299 298 297 297 296 297 297 296 297 297 296 298 297 297 297 295 296 288 294 292 292 295 293 298 297 295 298 296 295 294 294 299 294 293 291 289 286 289 290 292 294 297 296 293 294 293 297 299 301 298 302 300 298 299 298 296 292 301
316 314 314 314 313 313 312 312 311 311 310 310 306 308 307 306 308 308 312 312 302 298 294 296 294 297 297 295 294 295 297 299 298 298 297 298 297 297 295 298 298 297 299 297 299 299 293 291 296 294 295 295 298 295 295 297 296 300 303 315 307 294 296 293 285 284 284 283 281 284 289 290 293 295 294 299 303 303 301 297 297 289 298 299 297 298 306
316 315 314 314 313 313 312 312 312 311 309 309 310 307 305 302 297 301 303 305 299 298 300 297 295 295 296 292 294 295 293 297 300 299 299 299 298 298 299 299 298 297 296 296 297 298 300 295 295 295 295 296 296 296 295 298 303 320 320 317 302 295 300 295 291 288 287 289 290 292 301 291 290 295 293 293 299 302 302 298 295 293 297 298 298 303 306
316 315 315 314 314 313 312 312 311 311 308 309 309 309 308 305 297 299 297 305 298 297 294 296 296 294 296 290 294 293 294 296 297 299 296 300 298 298 299 299 296 296 297 298 298 300 297 298 296 296 297 297 297 298 297 299 311 320 309 312 298 292 289 295 297 296 296 296 296 297 300 292 291 293 295 294 297 302 302 298 294 299 300 291 299 308 307
316 316 315 315 314 313 313 312 311 310 308 308 309 304 304 295 301 304 308 294 293 293 295 296 299 301 297 294 296 294 292 293 293 296 299 300 299 296 298 299 299 298 297 297 293 296 298 297 294 296 296 295 297 297 299 299 306 306 298 303 296 291 290 296 297 296 295 296 296 295 293 293 293 293 296 294 296 303 301 300 301 304 298 296 302 308 307
316 315 315 315 314 314 314 313 311 309 307 307 310 301 304 305 305 305 311 299 299 297 301 303 298 300 298 297 295 292 292 293 295 296 294 296 295 298 292 296 297 298 299 296 292 293 290 293 300 297 295 295 293 293 295 299 299 298 295 297 298 290 290 299 296 295 296 296 297 296 293 291 291 292 292 296 299 301 304 303 304 302 300 302 307 308 308
316 315 315 315 315 314 314 313 311 310 308 310 308 306 302 300 303 302 309 306 303 305 301 301 296 293 302 291 296 295 295 294 296 295 294 292 293 297 296 296 296 297 297 296 292 296 296 296 294 300 298 294 295 293 296 295 297 297 296 298 298 291 290 303 296 292 294 296 297 295 294 292 291 292 293 304 306 306 306 306 307 308 306 308 308 306 306
316 315 315 315 315 314 314 313 312 310 309 312 308 308 311 310 308 309 304 299 302 307 299 296 294 291 293 290 298 300 295 296 298 295 296 296 296 297 297 298 297 296 294 294 293 298 298 298 297 299 299 294 298 294 293 298 295 296 295 296 298 296 291 294 293 289 290 295 295 294 295 292 291 291 293 292 299 302 304 303 306 304 303 305 305 304 304
316 315 315 315 315 314 314 313 312 310 309 310 306 308 311 310 310 312 305 298 308 299 301 295 293 291 294 297 298 297 296 298 296 293 297 298 300 299 298 298 294 293 293 293 294 296 297 298 297 297 298 299 300 298 297 296 296 295 295 297 292 295 290 288 291 288 289 294 294 294 294 289 286 288 292 294 295 301 306 307 310 309 308 304 302 304 309
316 315 315 315 315 315 315 314 313 311 308 306 306 308 311 309 308 307 302 296 299 301 293 293 294 299 298 300 297 298 297 298 298 291 294 298 297 300 298 297 294 291 293 296 299 298 299 300 299 298 298 298 297 296 297 299 300 299 296 293 295 295 290 289 291 287 289 295 293 296 289 283 286 293 298 298 296 305 304 304 306 309 310 307 309 308 311
316 315 315 315 315 315 315 315 313 311 309 305 306 306 311 313 308 305 300 296 297 301 293 294 295 299 297 299 299 297 296 297 299 299 295 298 297 298 297 295 292 290 297 299 301 301 301 303 302 301 299 299 297 297 296 296 295 302 295 295 292 293 290 289 289 286 286 291 293 289 282 285 295 300 301 303 300 308 305 304 306 306 307 308 307 308 310
316 316 315 315 315 315 315 315 313 312 311 306 306 309 313 314 310 306 302 298 296 299 293 295 298 298 298 299 298 299 300 299 302 302 298 297 298 298 299 298 296 297 302 299 301 298 296 295 294 296 295 296 296 296 296 296 294 295 296 295 292 290 289 290 288 288 287 286 287 282 284 293 299 299 305 313 310 309 308 304 305 306 307 309 307 308 310
316 316 315 315 315 315 315 315 314 314 311 308 304 304 307 311 309 305 303 298 298 300 301 295 298 298 299 299 300 302 301 300 300 299 298 300 298 299 300 303 301 303 303 303 300 294 289 289 287 287 289 288 288 290 294 295 296 295 296 297 297 293 291 289 287 289 283 285 285 287 295 293 295 299 305 300 302 305 305 298 300 306 308 308 307 307 309
316 315 315 315 314 315 315 315 314 314 313 309 305 305 307 312 312 309 308 302 298 300 297 293 297 301 300 301 299 296 297 297 297 298 302 305 301 302 301 303 303 301 300 298 294 293 290 287 284 283 284 282 281 286 293 294 298 297 296 296 296 293 290 289 285 287 286 282 281 284 285 283 288 297 303 304 307 310 309 305 298 305 309 310 308 307 309
315 315 315 315 314 315 315 315 315 314 313 310 306 304 308 313 313 310 308 303 295 293 298 305 303 302 299 301 302 298 296 294 295 293 293 297 303 304 305 304 304 304 303 298 294 292 290 287 286 284 284 285 290 291 287 294 292 296 297 296 296 296 294 290 286 287 284 282 280 281 283 287 294 296 300 303 308 311 310 303 296 304 309 312 310 308 309
315 315 315 315 315 314 315 315 314 314 313 310 306 304 312 314 314 311 308 304 300 300 304 308 305 302 295 294 296 295 296 295 296 293 292 294 302 303 304 307 303 306 301 295 292 291 289 287 285 285 286 293 289 288 291 288 288 290 294 294 292 292 290 285 284 286 288 284 280 281 285 288 297 299 300 301 302 305 304 292 293 303 309 311 311 309 309
315 315 315 315 314 314 315 314 314 314 313 312 306 304 309 315 315 310 307 301 299 301 303 309 303 297 296 296 296 301 299 297 295 295 294 298 300 300 303 303 298 301 305 296 294 286 286 287 288 285 286 294 296 292 284 290 288 288 288 289 286 287 288 286 285 285 290 290 282 284 286 295 299 299 302 302 303 299 291 287 298 307 309 309 310 310 309
315 315 315 315 314 314 314 314 314 314 314 310 308 308 311 313 317 311 305 302 299 298 304 309 310 305 307 305 303 302 303 301 297 294 293 294 300 305 305 305 304 298 300 294 289 290 287 289 290 288 287 289 292 287 292 287 287 291 290 287 286 286 288 291 286 285 284 282 283 283 285 291 300 303 303 303 298 289 283 291 298 310 309 310 310 310 311
315 315 315 314 314 314 314 314 314 314 314 312 308 307 312 312 315 316 308 300 301 300 303 308 309 307 310 302 299 298 300 301 297 295 292 294 299 300 296 293 297 298 295 293 289 292 288 289 289 290 285 287 289 295 286 289 292 291 290 293 286 290 285 282 283 285 285 283 283 282 281 292 302 301 298 300 293 289 291 299 305 310 310 310 310 311 312
315 315 314 314 314 313 313 313 313 313 314 313 308 303 306 311 314 315 314 305 301 300 303 306 312 310 311 309 304 304 300 300 298 297 298 298 302 293 285 289 294 295 294 292 289 291 291 289 289 292 293 292 291 290 286 286 287 294 295 292 291 295 287 284 285 290 282 280 281 281 288 296 302 298 293 295 299 299 299 303 304 308 310 310 309 309 311
315 314 313 314 313 313 313 313 313 313 313 313 310 302 301 306 312 317 317 311 304 300 302 306 312 311 314 315 310 306 307 306 306 304 300 298 301 297 295 299 299 297 300 296 293 292 292 292 292 289 288 289 289 288 289 283 283 290 294 292 285 293 292 289 287 292 290 287 287 292 295 298 301 302 300 301 303 304 303 304 304 308 308 309 308 306 307
314 313 313 313 313 313 313 313 312 313 313 313 310 303 303 306 312 316 312 309 307 308 312 312 312 311 320 323 319 309 309 311 310 307 302 302 300 301 300 298 301 305 305 297 293 292 293 290 292 291 288 291 292 288 287 287 286 288 289 294 292 299 299 295 295 292 297 298 297 301 301 301 302 303 304 303 304 305 304 304 302 302 304 307 307 306 307
314 313 313 313 313 313 313 312 312 313 313 313 311 306 305 304 307 313 310 306 303 303 306 308 303 303 305 307 309 312 312 312 312 310 310 308 300 299 301 304 306 305 303 304 300 297 295 292 295 292 288 291 290 286 287 283 288 292 291 291 294 296 299 295 293 294 290 289 296 299 301 303 303 303 304 306 305 305 304 303 302 303 304 305 306 306 307
313 313 313 312 312 312 312 312 312 312 313 312 311 309 309 308 307 311 305 302 303 297 299 302 305 311 315 314 309 307 309 314 313 309 309 308 307 300 300 306 308 303 302 305 302 301 296 294 294 291 289 295 294 287 289 289 287 293 286 287 290 292 302 293 294 293 291 292 296 300 302 303 303 303 301 303 304 305 305 305 305 307 309 309 309 310 310
313 312 312 312 312 312 312 312 312 312 312 312 312 303 302 305 308 310 309 307 306 301 299 300 305 313 315 312 310 311 312 312 310 311 311 310 310 310 310 310 308 310 308 307 302 299 295 294 293 291 288 292 295 290 292 293 291 293 293 291 293 296 302 291 294 292 293 296 297 299 301 300 301 304 305 305 304 304 303 303 304 305 306 307 307 309 308
312 312 312 312 312 312 312 312 312 312 312 312 310 304 303 306 309 310 309 308 304 302 299 300 303 309 311 310 315 312 312 310 310 310 312 314 314 313 311 308 307 305 304 304 302 299 295 293 292 293 292 294 298 294 294 294 294 293 291 292 298 296 290 293 293 289 285 290 294 299 294 293 298 302 304 304 305 304 303 303 303 303 304 306 305 305 308
312 312 312 311 311 312 312 312 312 312 312 312 310 306 306 305 309 312 312 311 308 300 297 298 299 304 311 311 317 311 316 316 314 314 313 314 314 313 311 309 307 305 302 299 299 296 292 293 295 296 296 297 295 293 295 295 294 290 289 292 296 292 294 291 289 288 288 294 298 299 300 298 299 303 305 305 306 305 303 303 302 303 304 305 304 304 304
312 312 311 311 311 311 312 312 312 312 312 310 306 307 309 309 310 314 315 317 308 303 299 302 304 305 300 306 314 312 315 315 315 314 313 313 312 311 310 308 305 303 302 299 298 294 292 294 295 294 295 297 294 290 293 288 288 285 289 294 297 297 299 298 298 295 296 298 300 302 300 299 302 305 305 306 306 306 305 305 304 304 304 305 305 305 304
312 312 311 311 311 312 312 313 312 312 312 306 306 306 302 307 311 312 313 316 310 304 301 297 297 302 308 312 310 313 315 315 314 314 312 311 310 309 308 308 307 309 302 300 295 295 295 295 298 298 301 302 294 292 288 286 285 287 293 297 299 300 301 302 302 299 298 301 302 301 302 302 304 306 308 307 309 308 306 305 307 307 306 305 304 304 305
312 311 311 311 311 312 313 314 314 313 310 307 307 304 299 299 308 315 312 313 312 307 302 298 298 303 305 314 311 311 312 313 310 311 311 310 309 310 310 309 307 307 300 296 295 296 297 294 295 297 300 304 298 290 287 286 285 284 293 297 298 300 300 300 301 302 302 302 303 304 304 303 304 305 306 307 308 308 307 307 308 311 312 309 304 304 304
312 312 311 311 311 312 313 314 315 313 305 305 306 305 306 308 311 312 312 312 312 307 301 297 297 298 297 303 309 317 316 315 317 313 309 312 306 308 308 306 305 305 303 295 300 297 295 295 295 297 295 302 300 290 289 285 284 287 294 297 298 299 300 300 300 301 302 302 302 300 299 300 302 302 301 305 308 309 309 308 308 307 309 305 304 304 303
312 312 311 311 312 313 313 314 314 313 309 309 311 312 311 311 311 312 312 310 310 305 303 295 294 297 297 301 307 310 318 309 306 304 304 308 306 304 303 309 303 303 315 303 293 292 296 296 295 295 298 301 296 292 285 285 287 293 297 299 298 299 300 302 303 301 301 301 301 298 296 298 301 303 305 306 307 307 307 308 309 307 307 305 302 301 301
312 312 311 312 313 314 314 314 314 312 311 308 308 309 312 314 311 310 309 311 307 307 304 298 296 294 296 301 300 305 312 302 302 299 299 307 306 301 301 301 302 300 300 295 296 297 298 301 292 294 296 296 293 286 283 287 292 295 297 298 298 299 298 299 299 300 302 302 301 301 300 301 303 304 305 305 305 308 309 308 309 308 306 306 304 302 301
312 312 312 313 313 314 314 313 309 308 306 307 309 311 310 312 311 312 315 308 303 302 300 302 297 293 295 294 294 298 308 303 301 300 299 302 309 302 300 297 296 294 297 302 297 293 294 296 297 293 290 292 287 283 285 289 292 295 296 297 299 298 298 297 298 300 301 300 301 301 301 302 302 300 300 302 303 305 305 306 308 308 306 305 305 304 302
313 313 313 313 313 313 310 311 310 309 307 307 309 318 316 315 313 310 310 315 309 301 296 298 298 293 291 289 291 299 312 302 303 302 302 302 302 303 300 295 293 295 301 295 292 293 293 302 295 287 291 285 284 283 284 292 296 296 297 297 298 299 299 299 299 301 300 299 299 299 299 299 299 299 300 302 303 304 304 303 304 306 305 305 305 306 305
313 313 313 312 309 310 306 307 312 312 310 312 316 320 321 320 316 313 311 308 311 309 299 296 294 296 294 293 296 303 301 295 299 297 299 296 295 300 295 292 289 300 293 291 293 292 296 303 288 286 285 281 284 291 294 296 297 297 299 299 301 300 300 299 303 300 297 296 296 298 297 296 296 297 298 298 299 303 303 302 303 303 304 304 306 306 306
312 312 307 307 307 304 304 307 310 312 320 318 319 311 307 309 304 307 305 300 304 312 301 299 294 294 300 297 296 303 300 294 297 296 296 299 296 297 297 293 293 299 288 290 293 297 295 292 287 285 286 291 294 296 296 297 299 299 299 300 300 300 300 300 299 298 296 295 294 296 298 296 296 295 297 298 298 300 301 303 303 304 305 306 307 308 308
309 306 305 305 305 303 304 310 315 319 314 314 311 306 302 305 300 299 302 303 302 298 300 299 296 297 297 296 297 302 301 295 294 293 293 297 295 291 295 291 294 294 283 288 293 301 290 286 286 284 284 290 293 296 298 299 300 300 301 301 303 301 301 299 300 299 298 297 297 298 298 297 296 298 297 298 299 300 300 301 303 304 305 306 307 308 307
306 304 303 303 302 306 314 314 318 315 313 305 305 303 300 304 295 290 299 293 292 298 302 297 300 300 301 299 299 298 306 298 293 292 290 295 297 290 294 290 292 291 284 283 287 296 286 282 286 282 282 287 291 294 297 299 300 299 299 301 302 301 300 299 300 300 299 298 300 299 299 299 299 298 299 299 299 299 300 301 303 303 304 305 308 307 306
303 302 303 303 305 305 306 307 310 310 305 299 297 298 296 293 299 299 299 292 291 295 303 299 301 301 303 300 299 297 302 307 299 297 293 292 299 298 290 289 295 288 285 283 292 294 287 283 281 279 283 287 292 296 298 299 299 302 300 300 300 299 298 298 298 299 299 297 297 295 297 300 299 299 299 300 300 298 299 300 301 302 303 303 305 307 306
304 302 303 304 304 305 306 308 306 302 302 300 291 286 288 294 299 297 297 292 293 299 300 301 299 297 298 304 300 301 302 305 302 303 294 293 299 293 290 292 293 286 282 287 295 287 285 280 276 278 286 290 293 295 297 298 299 299 298 299 300 300 297 295 296 296 298 297 296 296 295 296 296 297 298 298 299 299 300 300 302 301 302 304 305 305 306
309 307 305 302 303 305 304 293 300 300 289 291 285 287 289 288 292 294 294 300 305 299 298 306 303 304 306 308 304 305 302 305 299 298 293 291 298 294 289 288 288 283 287 295 290 285 281 275 276 284 288 292 294 296 296 296 296 296 296 296 295 295 295 295 295 294 295 295 295 295 295 295 296 296 297 298 298 298 299 302 303 302 302 303 303 304 306
307 308 306 304 300 300 300 290 302 299 290 284 285 285 287 289 290 295 295 295 299 299 300 301 301 300 297 303 301 301 303 302 301 295 294 297 292 291 288 285 286 290 295 289 286 283 282 284 286 286 291 293 297 297 296 296 294 294 295 296 295 294 294 294 294 294 295 294 295 295 295 295 295 297 297 296 297 297 298 299 301 304 303 303 303 302 304
301 295 288 290 291 294 290 288 291 284 283 285 289 290 290 289 288 290 293 298 301 299 302 302 301 300 299 304 303 302 301 297 301 294 292 294 290 289 287 285 289 292 287 284 285 284 285 285 289 290 292 293 294 295 294 293 294 294 294 295 294 295 294 294 294 294 293 294 294 295 294 294 294 295 295 296 297 297 297 298 299 301 300 300 300 302 303
296 289 287 289 287 288 285 283 284 287 292 293 293 294 292 294 293 295 300 305 302 301 303 303 303 304 301 303 299 296 300 298 295 294 295 291 287 287 291 293 291 287 285 283 281 279 283 284 288 292 294 294 293 293 293 293 293 293 292 292 293 294 293 294 293 293 294 294 295 294 294 294 293 293 294 295 296 297 296 297 298 299 298 299 300 302 303
297 300 288 287 285 286 293 287 287 289 294 297 298 299 299 299 300 301 302 305 303 304 306 306 305 305 300 299 300 298 299 298 295 296 293 289 288 289 294 289 286 283 281 278 280 280 281 283 289 293 293 293 293 293 293 292 293 293 292 293 296 294 292 293 293 293 294 295 294 294 294 294 295 295 295 295 295 295 297 298 299 298 300 300 301 301 302
291 293 292 289 286 287 289 292 294 297 299 303 300 301 302 303 302 302 304 306 306 307 305 305 302 301 300 301 300 294 295 295 294 294 295 292 291 287 281 286 283 284 283 281 281 282 284 286 293 293 293 294 293 293 292 292 292 292 293 293 292 292 292 292 293 293 294 294 294 294 295 295 295 296 295 295 296 296 297 296 297 298 298 298 299 299 301
297 290 289 285 289 293 293 295 297 295 296 298 301 303 303 302 303 304 306 307 307 305 306 303 303 298 294 296 295 293 292 293 290 287 293 289 285 282 282 279 283 281 286 287 282 284 288 291 294 294 293 292 292 293 293 293 293 293 294 293 293 293 293 293 293 295 295 295 294 295 295 297 297 296 296 296 294 295 296 296 296 296 297 298 298 298 299
294 291 295 292 292 291 294 296 296 293 295 296 299 300 302 301 302 305 307 307 306 305 305 303 302 296 294 296 288 287 286 289 292 286 286 284 285 286 284 281 282 282 281 286 287 288 290 293 293 292 293 294 295 293 292 293 297 297 293 294 295 294 294 294 295 295 295 295 296 296 297 297 296 295 294 294 295 296 296 296 297 297 297 297 298 297 300
295 291 290 296 294 291 295 292 292 291 293 294 296 298 301 302 302 302 308 306 306 303 300 296 294 292 288 285 283 285 285 289 289 286 284 283 287 286 283 281 282 285 286 289 291 292 292 293 293 292 292 293 294 292 292 293 294 293 294 295 295 294 295 295 295 296 296 296 296 300 297 296 296 296 297 297 297 297 296 297 299 298 297 298 298 298 298
290 290 290 294 299 299 299 298 297 298 298 299 298 300 303 302 303 305 309 307 303 301 297 297 293 286 284 285 287 288 292 289 286 288 287 287 289 286 285 283 285 288 290 290 290 291 295 293 293 296 293 294 296 292 292 294 294 294 294 294 294 294 295 295 295 295 296 296 297 296 296 297 298 297 298 298 297 295 294 295 296 296 297 297 297 298 298
Wind_Speed
18 19 19 20 21 21 21 21 21 21 20 5 4 2 2 2 2 6 4 6 4 6 2 1 1 1 3 3 2 2 2 2 3 5 5 4 4 3 3 0 1 2 1 0 3 3 2 3 1 1 1 0 0 4 7 3 5 3 2 1 2 1 3 4 4 6 5 4 4 2 7 1 4 4 3 2 2 3 6 3 6 6 3 4 2 2 1
18 19 19 20 21 21 22 20 20 19 14 0 1 2 2 2 2 5 3 4 4 3 2 2 5 3 4 2 0 2 3 5 6 4 4 3 3 1 2 4 2 2 1 4 2 2 2 4 4 2 1 2 2 5 6 7 2 3 1 1 4 2 1 1 2 2 3 5 7 9 8 6 3 1 3 1 3 6 3 7 2 7 5 5 8 6 4
18 18 19 19 21 22 22 20 20 19 13 3 1 1 1 0 1 2 6 5 4 2 4 1 1 2 2 3 4 4 4 1 2 3 6 4 2 2 3 0 2 2 1 2 2 5 2 1 3 0 2 3 3 7 9 7 3 1 2 4 1 4 2 2 2 1 2 1 2 3 5 4 5 1 3 1 7 7 5 3 1 4 3 3 4 4 1
18 19 19 19 21 22 23 21 20 20 11 5 1 0 1 3 1 5 6 6 6 2 0 2 3 1 2 5 3 2 2 2 6 5 5 6 2 4 2 2 3 3 4 4 4 6 7 5 2 4 4 4 3 3 8 8 4 7 5 4 2 2 1 3 2 3 2 1 3 5 1 2 1 1 4 5 1 4 6 5 4 7 6 7 2 7 14
18 19 19 19 21 22 23 23 21 19 12 5 1 1 2 0 4 2 4 6 5 1 3 1 2 2 1 3 1 4 3 1 2 7 4 6 3 2 8 5 4 3 3 1 4 5 3 4 4 5 2 3 2 6 6 8 13 11 5 7 4 3 4 6 1 3 1 2 3 8 3 1 3 1 2 4 1 6 6 7 5 6 12 2 1 12 17
18 20 20 19 20 21 22 24 23 19 12 3 1 3 3 2 1 2 1 2 1 5 5 4 5 2 6 2 1 1 4 5 3 3 2 1 6 3 5 11 6 3 2 3 4 5 3 5 3 4 3 3 8 5 7 6 8 7 3 4 4 3 2 5 3 1 3 3 4 5 4 0 0 2 2 2 1 6 7 3 4 12 9 10 10 14 14
18 20 22 21 20 21 22 23 25 22 14 4 2 4 2 2 0 0 2 1 2 3 5 2 5 6 4 1 2 2 3 4 0 0 3 3 5 4 3 6 8 7 6 6 2 4 3 4 2 3 5 3 4 5 5 4 8 6 4 4 2 3 1 2 2 3 6 10 11 8 5 3 2 3 4 2 3 2 3 5 3 2 1 5 18 13 6
18 19 21 21 20 21 21 22 24 25 16 4 5 4 1 2 2 2 4 1 1 3 1 0 5 6 2 3 1 1 1 4 4 4 4 2 3 3 6 3 4 6 8 6 4 1 3 2 2 2 0 4 3 1 1 3 6 4 4 2 3 3 2 6 2 4 5 7 13 12 11 5 3 4 5 6 7 7 4 6 7 13 10 12 14 12 10
18 19 21 20 19 20 20 21 23 25 18 4 4 2 2 1 1 0 1 3 4 3 3 3 4 4 5 4 1 3 4 3 1 4 2 3 1 1 2 1 1 4 7 8 4 1 3 2 2 3 1 1 2 1 3 0 3 5 3 3 4 6 1 4 3 4 7 4 12 12 11 4 4 5 7 8 3 6 2 4 3 6 9 11 12 10 7
17 18 20 20 18 18 19 19 21 23 17 5 1 3 2 1 2 1 2 1 2 3 3 1 5 5 2 2 1 2 2 1 2 4 3 4 3 3 2 1 6 3 7 6 5 6 3 5 5 4 5 3 2 3 3 2 1 1 1 0 3 1 1 3 3 4 3 7 9 11 10 5 3 5 7 4 3 0 2 3 3 9 16 12 10 11 10
17 17 19 19 17 18 19 18 19 20 11 6 4 3 3 3 3 3 2 3 4 4 2 5 6 0 0 4 4 3 3 6 3 3 0 1 2 1 6 4 3 1 2 3 5 4 6 5 5 2 3 3 3 2 4 3 0 0 1 2 1 2 4 1 1 1 4 5 9 6 5 2 3 4 2 3 2 3 5 1 4 10 4 5 4 11 11
16 17 19 18 17 17 17 17 16 15 10 2 1 1 2 0 1 1 2 6 1 4 5 3 1 0 3 1 3 3 4 4 2 3 5 0 1 2 6 4 4 2 3 3 1 2 2 1 1 1 2 5 3 4 5 4 5 4 1 2 2 3 2 1 0 1 2 3 8 5 2 5 6 9 7 4 2 5 11 9 6 4 4 12 13 12 15
16 16 18 18 18 17 16 15 15 14 13 4 1 3 3 0 1 1 2 6 3 4 5 3 4 1 3 5 5 3 3 3 3 3 2 3 3 3 1 1 1 2 1 3 6 5 3 2 2 0 2 6 3 6 8 8 6 4 4 2 3 1 3 1 2 1 1 3 4 2 6 7 9 10 5 6 9 4 13 8 7 8 3 8 11 10 11
15 16 17 19 18 17 16 16 15 14 14 8 0 2 3 3 3 2 1 3 2 2 1 3 6 6 6 4 3 1 2 6 3 2 3 1 2 0 2 1 1 2 3 2 6 3 2 5 2 4 4 5 2 3 4 2 5 5 6 4 4 7 3 2 0 1 1 1 2 5 4 5 3 2 1 3 1 4 9 4 1 5 5 0 12 9 11
15 15 16 17 18 18 17 17 17 16 15 13 1 3 3 4 1 0 0 3 3 0 2 3 2 1 4 2 2 4 4 2 6 3 2 1 1 1 1 2 3 3 4 4 4 5 3 1 3 3 3 4 1 1 3 1 3 3 3 4 6 2 2 2 3 1 2 2 1 2 1 2 6 5 6 5 3 2 4 8 1 6 4 2 10 15 14
14 14 15 16 18 18 19 19 17 16 16 14 3 3 3 2 1 1 1 2 3 5 5 2 3 3 4 2 1 4 2 1 1 1 4 4 2 4 2 3 2 4 5 5 2 3 2 3 0 2 1 0 1 0 1 3 3 4 3 3 8 7 7 6 3 1 2 3 2 2 4 5 6 7 7 9 7 3 4 6 0 2 1 5 8 15 14
14 14 14 15 17 18 19 19 17 16 15 15 5 3 3 4 4 1 1 2 4 2 3 4 0 3 5 3 4 4 1 2 0 1 1 2 1 2 5 5 2 5 3 3 5 4 5 4 1 1 1 1 1 0 2 2 3 4 8 5 8 6 3 4 4 2 1 3 2 1 3 1 2 5 5 8 6 5 3 3 6 5 5 9 13 16 17
14 14 14 15 15 17 18 18 18 16 15 14 5 1 3 5 4 0 3 3 2 1 3 2 3 5 3 1 1 1 2 2 4 1 2 1 1 2 3 3 4 2 2 2 1 4 3 2 3 1 1 1 0 0 0 0 1 1 2 2 2 2 2 3 1 1 0 2 1 2 4 4 3 4 9 9 3 1 4 6 8 8 10 5 6 13 12
13 13 14 14 15 17 17 17 18 18 16 15 7 1 2 3 6 3 5 3 3 2 4 4 1 2 0 2 2 2 1 1 2 2 1 3 1 1 2 0 0 1 6 2 4 2 1 1 0 1 1 4 2 0 0 1 2 2 1 3 2 2 1 0 2 1 1 3 2 4 4 3 3 9 7 5 1 1 3 5 2 14 10 6 8 11 11
13 13 14 14 15 16 17 17 17 16 16 14 7 1 5 4 3 4 3 1 1 1 3 1 2 3 1 4 4 4 2 6 2 5 3 1 3 2 2 2 4 3 3 3 2 1 3 0 1 0 2 0 0 1 1 1 0 1 2 0 2 0 1 0 0 1 1 2 1 1 1 2 5 12 5 2 1 4 3 2 2 4 12 14 8 10 11
12 12 13 13 14 15 16 16 16 15 16 15 8 2 3 1 3 3 2 3 1 2 1 3 0 1 0 1 1 6 4 3 2 2 4 1 0 2 2 2 2 1 0 1 2 1 1 0 1 0 1 1 2 2 0 1 3 1 0 0 1 1 1 1 2 1 1 1 1 1 3 7 5 3 1 3 2 3 3 2 4 3 8 9 9 5 8
11 11 12 13 13 15 15 15 15 15 15 15 10 1 0 4 2 3 2 1 1 1 2 3 2 3 3 1 2 4 6 6 4 5 5 2 3 2 3 3 1 1 1 2 2 1 2 0 0 1 1 2 3 1 1 1 1 3 1 1 1 2 0 3 0 2 1 1 2 4 4 5 4 1 2 3 5 3 1 2 1 7 5 5 8 9 6
11 11 12 13 13 15 15 14 14 14 14 15 9 2 1 5 7 6 1 0 1 2 3 3 2 2 2 1 2 5 4 3 6 2 5 7 2 2 2 2 1 0 1 1 2 4 2 3 0 2 2 0 0 1 2 1 0 1 1 1 3 0 1 1 0 2 1 2 4 4 3 4 6 4 2 4 5 6 6 4 5 3 2 4 12 10 11
11 11 12 13 13 14 14 13 14 13 14 13 7 2 3 3 6 6 4 4 2 0 2 3 4 3 2 1 1 2 3 2 1 2 2 8 6 0 2 1 1 2 2 0 4 3 2 2 1 1 1 1 2 1 1 2 0 1 0 2 1 2 0 1 0 2 2 1 3 5 6 6 6 7 5 4 4 5 3 5 3 4 6 9 6 4 7
11 11 11 12 13 13 13 13 13 13 12 13 10 3 3 3 1 4 2 0 3 2 3 2 2 1 3 4 2 1 0 1 3 4 5 6 8 6 3 1 2 4 3 1 1 6 4 2 1 1 1 1 2 1 0 1 1 0 2 3 3 3 0 2 0 0 1 2 4 6 5 4 4 7 9 8 7 6 6 4 5 7 8 9 11 13 11
10 10 11 12 13 13 13 12 13 13 12 13 9 3 2 3 4 2 1 2 1 2 4 1 1 3 4 4 2 2 0 2 5 7 5 2 3 6 9 2 3 3 4 2 5 5 3 3 3 1 2 1 1 1 1 3 1 0 1 4 3 2 3 2 0 1 4 4 3 6 4 3 9 12 11 9 8 8 3 6 7 10 13 9 4 1 11
10 10 11 11 12 13 12 12 12 12 12 11 6 2 2 5 3 1 2 2 1 2 3 1 3 6 4 3 3 3 2 5 5 6 7 6 8 6 6 6 7 4 5 4 3 4 3 2 2 1 1 0 0 0 1 1 0 0 1 2 3 2 2 3 3 3 2 1 2 5 3 3 7 8 7 10 10 8 9 2 8 7 12 11 11 6 3
10 10 11 11 12 12 12 13 12 12 11 10 5 4 2 2 3 1 1 3 2 2 2 0 1 4 3 0 4 3 5 7 7 8 7 7 7 7 7 6 5 4 2 3 1 2 1 1 0 0 0 1 1 1 1 0 1 1 1 2 1 2 3 2 2 3 2 3 4 1 2 3 4 3 4 5 8 9 7 7 4 4 7 10 14 12 10
9 9 10 10 11 11 12 11 11 11 11 8 5 3 0 4 3 2 3 1 2 3 1 1 2 2 2 1 3 5 4 8 9 8 7 7 7 6 6 5 4 3 3 4 3 3 2 1 1 2 0 1 2 0 1 0 0 2 2 1 1 2 2 3 4 3 4 5 4 2 1 0 2 2 2 4 5 7 8 8 7 6 0 8 11 14 16
9 8 9 9 10 10 10 10 10 9 8 5 2 2 3 1 1 5 5 4 2 2 1 1 3 1 2 0 2 2 3 5 8 9 9 6 6 5 3 5 3 3 3 2 3 2 1 2 0 1 1 1 1 1 1 0 0 3 1 2 3 2 3 4 3 2 3 2 2 3 1 2 2 2 1 3 5 7 5 6 8 6 6 6 6 9 11
8 8 8 8 9 8 9 8 9 7 5 2 2 1 1 0 1 2 7 5 3 2 2 2 1 2 2 0 2 2 3 3 6 7 7 5 4 3 1 4 3 2 2 2 3 1 1 1 1 1 2 0 2 1 2 1 1 2 1 2 4 4 5 5 3 3 3 4 3 1 1 2 5 2 3 4 4 7 7 7 8 8 9 4 5 4 9
8 8 7 8 9 8 9 8 9 6 3 1 1 1 1 1 1 5 6 4 3 1 1 2 1 1 0 1 1 1 2 2 2 2 2 2 2 2 4 4 2 1 3 3 1 1 0 1 2 0 1 1 3 2 2 2 1 2 3 5 4 4 3 4 4 3 4 3 3 2 1 3 2 0 2 0 2 5 4 5 5 7 9 5 2 5 2
9 8 8 10 10 8 9 9 8 6 4 6 10 12 14 16 15 10 4 3 1 1 1 2 2 1 1 1 2 2 1 2 3 2 1 1 2 1 2 2 3 3 4 3 1 1 1 2 1 2 1 1 1 1 2 2 2 2 3 3 4 4 4 3 2 3 3 3 1 0 2 2 4 3 2 2 4 2 3 1 2 4 8 11 9 6 3
8 8 10 10 10 9 8 9 9 7 3 2 2 1 2 1 1 1 1 1 1 0 1 1 1 1 1 3 3 3 1 3 2 1 2 1 1 3 1 1 2 1 2 2 1 2 2 2 2 1 1 1 2 3 1 3 2 2 3 3 3 3 2 2 2 5 5 5 3 1 2 2 3 3 4 3 2 1 3 5 3 1 4 5 8 6 6
8 9 10 11 10 9 9 7 3 2 1 2 2 3 1 4 5 3 2 1 1 0 1 1 1 2 0 2 0 2 0 3 1 1 3 1 1 2 1 2 2 2 1 1 2 1 1 1 4 3 1 0 2 0 4 3 2 3 3 3 3 3 3 4 4 4 4 3 4 5 5 3 2 3 3 3 3 3 2 0 1 4 1 4 2 4 4
10 11 12 12 11 7 1 1 1 1 2 0 1 1 6 5 4 2 1 1 1 2 1 1 1 1 3 3 1 1 1 1 0 1 0 1 1 2 2 2 1 1 0 1 1 0 1 1 2 0 1 1 3 4 3 3 1 2 2 1 3 1 1 2 3 5 3 2 4 4 5 4 4 3 4 4 3 3 3 3 1 2 2 2 0 2 4
11 12 12 9 3 0 1 1 1 1 1 1 3 5 5 3 1 2 2 1 1 1 1 1 1 3 4 2 0 2 2 1 0 2 0 1 3 1 2 2 1 0 1 2 1 1 0 1 3 1 1 2 2 3 3 3 2 2 1 2 1 1 1 2 2 1 2 3 5 4 3 4 4 4 3 4 4 3 3 3 4 4 6 7 4 3 0
12 9 2 1 0 1 1 1 2 1 5 5 3 3 3 3 1 2 2 2 1 0 1 1 1 2 0 2 0 2 1 1 1 2 1 1 2 0 0 2 1 1 1 1 2 3 2 1 1 3 4 4 3 2 2 2 2 3 3 2 1 1 1 2 2 3 4 4 4 4 5 4 4 3 2 4 4 4 4 3 3 4 5 5 3 4 4
3 1 1 1 1 0 1 1 3 2 3 1 1 1 1 0 1 1 1 1 1 1 1 1 3 2 2 1 1 2 2 3 1 1 2 2 2 1 0 1 1 1 1 1 1 1 0 1 1 2 3 2 0 2 1 2 1 2 2 2 1 0 2 2 2 2 1 2 3 4 2 3 4 5 4 3 4 3 3 4 4 3 4 5 5 4 6
2 2 1 1 1 1 1 3 6 2 0 0 1 1 0 0 1 1 0 1 2 1 1 1 3 3 4 5 4 1 0 2 1 2 2 1 0 2 1 1 1 1 1 1 2 1 3 1 1 1 4 3 4 2 0 0 1 2 1 0 1 1 1 1 1 0 1 1 0 1 1 2 2 3 4 4 3 4 5 4 4 3 3 5 7 4 6
2 1 1 0 2 2 4 5 3 1 1 1 1 1 1 1 1 1 1 0 1 2 1 2 0 0 0 1 2 2 2 2 1 2 3 2 1 2 2 0 1 1 1 1 1 1 2 1 0 2 5 2 5 3 1 0 0 0 1 1 2 1 1 0 1 0 0 1 1 2 2 1 1 1 2 4 3 3 3 4 4 5 4 4 5 6 4
0 0 1 2 2 2 3 1 1 1 1 1 2 1 1 2 0 1 1 1 1 0 1 1 0 2 2 5 4 3 0 1 1 1 1 0 1 1 1 0 1 1 1 1 2 2 2 1 1 3 4 4 4 2 1 0 1 3 1 0 1 1 2 3 3 3 1 2 3 3 3 1 1 2 2 2 4 4 4 4 4 4 4 5 4 4 4
5 1 1 0 1 0 0 1 1 1 1 1 2 1 1 0 1 1 1 1 1 1 2 0 1 1 1 2 2 0 1 1 1 0 1 1 0 1 1 0 1 0 2 0 1 2 0 2 3 6 4 4 4 3 3 3 0 1 3 3 3 2 2 3 2 2 3 2 3 3 4 3 4 4 3 3 3 4 4 4 4 4 4 4 4 4 5
1 0 0 1 1 1 1 0 0 1 2 1 1 1 0 1 2 0 0 2 1 1 2 2 2 3 3 1 2 1 0 1 2 2 1 0 2 0 1 1 2 1 1 1 1 2 4 3 6 4 5 3 2 1 1 3 4 3 3 2 2 2 3 2 3 3 4 3 3 3 2 2 3 5 4 3 2 3 4 4 4 4 4 4 5 4 4
1 2 3 1 0 1 1 2 2 3 2 3 3 1 2 1 2 3 3 2 2 1 1 1 2 2 2 1 2 0 1 1 1 1 2 1 1 0 1 2 2 1 1 2 1 1 2 5 4 2 3 3 2 3 4 4 3 3 2 0 3 2 2 1 1 1 3 3 4 3 4 4 4 4 5 6 5 3 3 4 4 4 4 4 4 4 3
1 1 1 2 2 2 1 1 0 1 2 3 3 6 4 6 3 3 5 1 1 0 0 1 1 1 2 2 2 2 0 2 1 1 1 1 2 2 3 0 2 1 0 0 1 4 7 6 4 6 5 5 5 5 4 4 3 3 3 2 1 2 3 2 3 3 4 4 4 4 4 4 4 4 5 6 5 5 4 4 4 3 3 3 4 4 5
1 1 2 1 1 2 0 1 2 4 1 2 5 5 6 6 5 4 1 1 1 4 1 0 2 4 2 1 1 1 0 1 1 1 2 1 2 0 1 1 1 1 2 2 4 5 5 6 5 5 5 5 5 4 4 4 3 3 2 1 0 2 3 3 3 4 5 4 4 5 5 5 5 5 4 5 5 5 5 5 5 4 3 3 3 3 3
1 1 1 0 3 1 1 4 2 3 3 4 3 3 4 1 2 4 4 2 3 1 1 1 0 1 1 2 1 2 2 0 1 2 1 1 1 1 1 0 1 2 2 3 5 5 5 4 7 7 5 5 6 6 4 4 3 2 1 0 1 3 3 3 3 4 4 4 4 4 5 6 6 6 6 6 5 6 5 5 5 4 3 3 3 3 3
2 1 1 2 2 1 3 3 1 3 6 5 2 0 1 2 4 7 5 1 1 3 4 2 1 2 1 0 2 1 1 0 1 2 0 1 1 3 2 2 1 2 4 5 4 4 5 5 5 6 6 5 4 5 5 4 4 3 2 2 0 1 2 2 3 3 3 3 3 4 5 5 6 6 6 5 5 6 5 5 5 5 4 4 4 4 4
1 1 1 0 2 3 4 1 0 4 4 5 2 3 1 2 5 7 2 1 1 2 1 1 1 1 1 0 0 1 1 1 2 0 1 1 2 1 1 1 3 4 2 3 3 4 3 6 7 7 6 5 5 5 5 4 3 3 2 1 0 1 1 3 4 4 4 4 5 5 5 5 6 6 6 6 7 6 6 6 6 6 6 5 5 4 5
0 0 3 3 4 4 1 1 0 3 6 6 4 5 2 4 4 2 2 2 1 1 2 1 1 1 0 1 1 0 2 1 2 2 4 3 2 3 3 3 3 5 4 3 2 5 7 7 8 7 6 5 5 4 4 4 4 3 2 1 1 1 3 3 4 4 5 5 5 6 6 6 6 6 6 5 6 7 7 7 6 6 6 6 5 5 5
0 0 2 2 3 5 5 4 2 6 8 8 6 5 3 3 3 3 1 3 2 1 3 1 2 1 1 2 4 2 0 1 0 0 0 2 2 2 2 5 3 5 6 5 4 4 5 6 7 9 8 7 5 4 4 4 4 2 1 0 1 3 4 4 4 4 4 5 5 5 5 5 6 5 5 5 5 5 6 7 6 4 4 5 5 5 5
Wind_Direction
340 341 342 340 339 338 338 338 336 340 339 6 7 282 26 67 215 258 333 313 84 61 55 281 40 225 230 294 339 348 42 45 310 39 1 21 22 19 34 72 90 327 109 10 57 30 57 0 62 308 359 230 186 268 298 318 38 85 324 14 293 150 43 6 298 311 295 306 289 14 34 24 32 6 40 76 143 173 163 167 170 116 139 83 12 82 257
341 343 343 341 340 339 338 339 340 340 349 267 266 70 117 175 251 321 306 6 92 83 248 307 303 280 303 102 194 326 84 36 8 23 347 28 352 35 332 356 74 123 60 61 44 336 94 356 49 1 24 22 339 350 360 22 28 51 279 95 303 34 330 99 341 1 340 339 353 5 338 48 73 283 299 288 82 54 103 93 66 100 208 176 142 184 198
342 345 344 342 342 340 338 341 342 347 343 187 158 60 172 156 283 238 292 353 76 162 196 168 263 285 65 38 18 351 36 23 56 60 27 342 360 25 358 302 309 41 92 98 79 27 105 145 340 87 22 309 323 348 22 357 26 330 218 241 312 73 345 80 102 115 93 12 22 347 330 298 282 262 328 303 116 139 112 108 60 109 227 129 129 127 80
344 346 345 344 344 342 339 342 347 350 4 141 76 197 44 30 78 311 338 3 19 41 114 128 143 121 63 40 352 43 43 326 9 56 54 27 351 71 319 322 55 35 43 39 35 41 29 74 330 35 345 328 342 347 358 32 357 345 33 19 76 117 41 81 140 140 165 197 230 256 216 348 38 319 358 322 265 112 85 106 118 168 184 165 237 160 144
345 347 347 347 347 344 341 342 348 355 351 197 73 359 101 153 72 356 338 336 40 331 354 19 72 48 137 79 352 40 58 290 345 19 73 356 358 39 44 7 24 340 64 78 54 359 47 5 73 8 324 270 266 307 33 9 11 356 9 360 84 55 49 0 83 130 164 230 233 291 268 357 318 277 333 335 243 152 134 147 212 163 113 219 266 156 150
346 349 351 350 349 346 344 343 347 355 358 154 10 43 8 66 277 97 193 128 295 16 340 21 68 33 79 43 35 52 49 34 32 334 60 303 21 75 351 23 21 28 89 97 52 331 67 49 19 315 346 352 345 11 347 44 351 14 22 10 93 120 60 330 359 352 93 355 346 353 17 353 241 276 52 345 275 133 156 226 181 152 155 184 179 170 163
349 350 352 352 351 349 347 346 346 352 357 169 52 85 315 108 243 148 343 143 257 189 248 308 96 62 92 99 48 55 54 52 336 242 328 28 2 44 74 5 2 34 42 83 87 8 61 357 355 30 329 20 338 16 342 335 11 24 18 20 105 83 24 339 10 302 35 13 1 349 1 337 24 350 345 5 53 41 109 93 71 65 341 163 152 157 130
351 351 352 354 353 351 350 349 350 348 352 161 53 74 78 1 58 310 354 56 274 272 302 194 70 70 17 87 335 104 44 60 349 12 53 30 343 14 80 14 12 32 51 62 81 2 135 131 20 301 51 335 42 5 192 288 319 26 32 352 344 105 318 5 333 39 354 7 358 356 353 1 18 343 23 49 83 66 66 97 88 83 71 111 125 124 120
351 351 353 354 354 354 352 354 355 350 350 58 53 51 63 277 201 167 34 19 318 340 13 48 65 59 350 74 356 60 359 59 75 65 350 99 82 22 122 193 43 17 42 48 44 207 182 201 225 236 150 72 259 86 290 103 302 348 12 17 335 52 310 48 38 64 321 11 6 335 344 350 56 357 9 6 6 104 191 125 200 122 136 122 115 120 142
351 352 354 355 356 357 354 357 359 358 349 104 58 20 293 358 293 59 120 84 342 16 323 12 68 26 275 136 359 113 355 245 113 67 28 41 75 149 143 176 96 5 37 20 331 302 231 234 245 211 215 214 214 200 225 286 273 321 67 10 60 32 81 38 17 79 274 296 7 335 332 7 12 327 319 332 316 340 48 51 63 146 137 128 152 189 162
351 353 354 354 357 358 357 359 3 7 12 60 42 8 348 26 329 343 42 79 338 7 71 24 89 170 316 37 88 55 84 38 66 113 30 36 3 84 83 68 84 185 38 299 279 250 239 225 238 193 168 198 231 215 241 262 185 213 141 63 16 58 87 99 177 116 237 321 340 352 41 42 259 231 277 286 236 165 116 120 133 156 134 193 167 136 134
351 353 354 355 357 358 357 357 1 10 27 351 151 267 240 238 96 92 74 88 358 333 78 80 99 47 75 21 75 98 75 71 61 138 123 253 286 7 61 51 89 18 263 263 306 268 278 16 24 11 58 8 18 1 57 18 319 7 88 124 121 81 79 43 112 92 302 30 31 33 28 258 249 312 313 258 211 83 81 61 43 330 78 95 101 125 143
351 353 355 355 356 358 356 356 358 1 11 4 121 351 306 12 153 118 120 108 57 345 54 15 339 41 110 72 62 27 33 30 64 86 87 106 19 24 32 123 108 248 290 346 26 40 58 292 326 71 307 346 352 18 21 4 344 353 45 97 106 89 80 187 31 51 23 42 87 86 252 245 295 296 342 48 87 85 83 42 7 5 329 133 125 136 137
351 354 355 355 356 357 356 356 355 357 2 2 184 252 299 1 14 26 65 95 53 298 124 23 21 40 58 70 111 35 10 20 341 69 71 6 114 356 306 144 256 277 264 102 51 52 18 31 29 16 330 3 5 21 312 355 42 35 31 30 86 130 99 85 71 336 169 172 130 179 288 324 317 356 42 23 259 168 145 137 278 331 328 317 127 118 117
351 354 354 355 356 356 356 356 354 354 359 357 255 302 325 347 48 144 231 87 135 313 79 85 290 345 84 34 73 62 41 336 49 21 280 306 79 277 235 312 349 358 45 65 7 40 110 92 28 25 332 45 49 274 320 29 306 34 17 39 75 116 112 232 99 303 115 125 17 19 43 313 279 247 290 326 264 281 332 100 331 335 357 18 139 132 131
349 352 354 355 356 356 356 356 354 354 358 358 47 2 282 312 306 104 109 132 116 36 318 276 233 220 97 67 68 109 111 42 355 350 0 344 316 331 341 353 328 29 42 68 73 83 36 77 225 82 16 295 247 320 333 335 350 306 37 39 64 37 80 113 112 163 39 38 117 197 150 222 233 281 308 311 340 14 34 64 140 298 353 105 137 128 137
347 351 354 356 356 355 355 355 353 355 357 8 349 339 338 24 24 345 62 33 75 142 246 291 163 109 82 6 15 31 97 77 113 65 10 348 323 313 314 343 335 48 55 74 7 54 27 32 49 126 272 228 47 218 324 50 339 327 328 14 51 50 354 34 29 30 149 138 97 254 199 215 318 322 319 321 332 353 65 88 237 218 197 154 144 141 145
346 352 354 356 356 355 355 353 353 352 356 358 345 322 304 332 9 87 61 94 104 23 295 311 47 56 50 193 162 254 75 33 29 22 108 273 330 12 314 1 353 332 66 83 28 61 53 67 37 46 71 294 195 50 48 308 6 314 317 329 349 4 351 51 191 165 170 122 251 319 308 292 313 311 315 316 314 74 110 183 228 165 179 188 153 137 130
346 352 354 356 356 355 354 353 352 353 355 358 340 181 279 330 349 53 119 74 78 104 274 293 272 119 177 69 110 117 100 116 139 93 322 14 345 264 242 253 71 331 1 119 66 79 99 325 61 110 89 319 24 129 265 44 298 292 51 17 1 353 88 327 70 60 202 205 146 218 243 239 305 312 302 277 25 236 223 230 237 157 170 163 151 143 144
347 352 354 354 356 355 354 353 350 352 354 1 13 197 268 304 332 32 58 111 83 134 273 328 35 60 340 112 82 54 14 27 29 119 142 128 284 44 29 11 327 73 356 57 44 251 96 30 245 65 39 268 278 181 40 289 218 15 323 190 118 256 74 251 42 240 55 42 87 5 191 249 19 324 331 26 106 232 222 266 5 149 155 152 153 158 156
349 354 353 353 354 355 354 354 351 349 354 357 9 18 1 298 6 19 43 142 118 83 339 295 354 220 197 62 201 157 138 163 177 110 213 183 217 85 120 195 245 70 196 107 119 353 136 354 321 98 219 120 294 50 146 324 329 271 175 242 129 199 72 305 291 190 157 54 126 199 219 272 329 13 243 284 220 261 244 145 113 92 143 145 140 176 163
351 353 352 350 353 354 354 354 350 349 353 357 358 91 20 279 338 336 330 114 108 181 203 239 234 243 233 199 197 196 155 150 187 154 139 117 359 135 175 121 141 134 192 112 46 14 360 172 39 47 34 318 18 107 160 52 347 287 311 85 32 318 111 179 153 263 101 216 214 250 259 257 296 307 256 276 301 327 191 87 66 139 148 144 146 163 164
353 352 349 349 351 353 354 352 348 349 352 357 9 71 233 309 327 334 30 74 323 329 337 351 342 321 332 330 242 200 223 143 116 87 122 116 66 19 83 81 357 173 102 104 164 155 188 121 194 155 62 116 138 323 354 116 194 349 3 287 175 247 235 185 91 274 302 238 216 277 306 331 335 349 343 342 343 355 38 70 92 1 87 169 159 161 154
349 349 347 348 350 351 352 349 346 345 350 353 7 336 312 292 283 337 10 65 101 202 345 360 62 354 311 321 2 80 85 95 158 153 156 121 111 358 338 282 168 41 25 317 173 129 189 118 182 124 126 239 86 54 174 318 287 199 14 330 342 273 45 69 320 310 61 218 316 3 327 315 340 334 333 34 29 21 38 68 56 91 82 72 33 104 135
343 345 345 346 349 350 349 346 343 341 344 349 347 294 256 305 324 12 63 62 342 90 135 321 18 230 287 258 222 63 236 88 93 101 96 95 124 139 164 165 166 146 194 178 72 58 40 102 356 39 98 258 108 276 258 95 302 118 48 274 348 345 29 30 310 338 77 261 284 300 296 272 321 18 357 359 4 38 43 62 82 91 79 66 89 88 70
340 343 343 344 347 347 345 343 340 338 337 342 353 358 357 269 304 320 115 57 121 112 103 106 275 310 337 27 44 273 338 73 65 49 47 94 133 131 149 146 38 33 99 92 79 99 116 56 89 119 113 287 95 121 204 198 187 228 152 235 196 253 347 293 233 318 285 286 302 328 309 13 29 13 10 357 357 342 41 91 95 98 91 86 34 71 139
336 340 340 344 346 346 342 339 337 334 331 332 337 299 229 280 269 343 49 282 59 10 36 119 278 306 7 350 286 343 80 107 85 81 66 58 84 75 84 96 101 49 60 40 33 114 68 87 93 212 157 211 105 199 176 350 79 45 286 285 327 345 11 296 17 358 351 330 312 355 17 306 344 359 356 5 351 5 342 19 106 116 126 131 130 111 93
332 336 339 342 343 342 339 336 333 331 327 325 316 292 231 250 270 245 257 167 98 172 177 220 322 288 306 319 337 44 81 88 96 94 93 83 79 82 92 102 100 86 49 81 41 34 48 89 228 215 150 301 55 306 350 297 52 33 360 277 274 125 209 127 121 164 225 250 260 230 210 250 240 286 338 355 20 7 8 350 356 95 122 133 127 121 112
328 335 338 339 340 339 338 337 334 331 330 334 307 319 229 240 256 319 359 316 116 97 95 242 297 7 120 219 345 40 16 91 93 96 94 86 81 76 78 73 88 125 85 73 93 101 111 185 166 116 133 211 99 284 22 263 130 226 236 256 297 256 194 167 187 189 257 255 269 278 137 313 276 305 338 27 22 32 6 356 4 352 326 145 137 142 141
323 330 334 335 335 335 330 339 342 335 346 343 15 54 38 333 8 31 349 11 59 122 82 82 86 227 284 45 26 7 41 53 89 96 95 92 76 75 87 88 57 56 98 131 148 110 204 126 327 314 328 26 129 193 78 196 144 251 266 267 258 262 234 235 193 178 270 269 295 292 246 232 244 261 158 71 42 34 19 360 349 1 360 317 156 150 158
321 324 324 326 326 328 322 338 344 352 12 335 73 64 45 40 309 70 2 5 8 105 134 100 158 272 28 301 112 68 121 97 86 94 86 89 99 98 31 76 48 80 56 3 46 144 126 78 92 333 320 73 118 103 172 125 262 313 283 288 306 323 321 307 295 263 273 294 315 308 19 331 322 333 5 28 57 47 21 353 353 2 352 5 305 185 160
318 319 317 321 322 316 318 325 336 356 44 53 97 162 171 203 285 317 338 337 2 54 73 71 354 16 268 322 294 287 138 127 111 73 38 104 48 29 34 74 124 23 120 123 160 68 45 196 106 167 86 339 64 111 74 96 166 242 302 328 315 311 313 317 315 305 307 302 339 12 22 315 336 281 245 286 24 82 54 340 341 349 1 345 12 320 269
312 314 314 318 319 316 311 312 317 319 281 261 262 273 269 266 267 273 301 321 43 73 117 84 144 204 127 218 318 338 56 49 29 41 76 329 152 70 52 20 37 50 1 80 345 140 212 113 71 76 282 2 95 101 111 185 216 255 294 298 306 310 311 300 301 306 312 329 41 197 270 279 282 275 245 210 171 152 134 157 281 4 7 10 359 340 322
306 305 308 311 311 311 308 307 304 298 295 324 52 15 326 266 196 175 184 83 95 334 74 109 77 91 234 310 96 269 65 140 210 78 101 313 143 73 140 55 11 87 339 101 239 70 337 76 102 176 10 22 45 77 318 269 252 290 321 318 314 325 324 339 8 1 351 337 338 256 256 269 298 328 341 324 309 221 164 176 161 64 41 17 357 347 332
305 306 306 309 307 305 309 313 327 61 124 295 254 260 93 69 113 157 127 90 74 343 26 330 109 89 26 11 75 265 173 91 176 237 135 251 12 143 185 78 332 83 274 92 48 116 133 209 175 85 232 359 46 10 241 248 283 313 336 342 341 2 18 26 338 344 339 337 1 357 351 9 28 315 292 314 317 316 320 4 119 124 214 298 354 345 357
304 308 307 304 306 299 308 107 85 26 25 285 201 43 113 139 106 97 123 116 125 157 99 237 91 168 143 149 197 265 67 68 293 44 99 139 17 32 96 115 74 262 207 82 195 15 156 184 78 10 325 73 230 191 225 197 229 286 288 280 302 2 281 257 268 306 318 339 15 4 8 15 23 355 343 321 313 312 301 285 323 67 137 150 269 1 10
308 308 309 301 302 45 13 237 215 175 233 228 160 113 72 64 16 63 27 26 359 104 150 157 81 223 161 196 253 281 74 131 335 58 351 110 187 284 67 46 135 202 44 4 24 120 250 66 99 131 215 177 250 228 209 188 190 220 278 263 280 300 339 341 291 184 14 354 3 358 13 10 13 7 8 349 325 329 331 291 270 248 234 231 209 187 95
308 308 327 35 45 38 11 331 337 256 121 94 80 42 348 31 66 338 357 33 269 42 332 66 191 252 3 86 194 252 80 266 49 131 311 230 91 279 72 107 219 142 232 243 244 183 99 43 77 153 259 254 252 253 239 212 226 223 238 250 277 311 9 7 35 48 18 6 357 348 349 0 350 331 19 331 328 320 289 274 277 266 274 255 193 159 154
314 324 37 26 95 182 162 294 305 20 71 358 62 62 336 357 60 5 273 231 41 348 281 119 242 196 121 72 276 293 153 162 91 37 148 262 117 286 26 124 279 76 329 19 282 139 19 332 356 37 283 277 274 260 230 235 280 259 238 249 255 109 98 57 53 86 19 289 272 285 263 288 299 300 309 315 307 292 282 291 288 269 242 245 227 184 168
47 33 88 44 160 227 318 321 322 317 61 45 324 103 357 10 93 271 304 49 341 274 130 268 215 177 179 166 170 251 303 80 104 225 178 287 19 150 246 92 260 107 214 158 235 67 123 212 272 62 298 229 229 249 238 263 305 309 314 186 148 130 141 115 80 186 163 130 208 323 318 286 252 253 281 289 291 306 319 320 310 291 240 234 242 221 190
24 45 26 233 273 315 306 304 324 61 66 25 14 348 68 325 257 188 94 54 191 238 187 171 358 125 302 99 109 182 284 88 178 141 115 132 243 80 64 210 228 93 263 234 251 93 76 85 5 196 238 220 195 186 185 358 267 259 269 190 172 180 175 75 347 114 129 11 346 335 332 4 355 295 278 263 258 271 275 282 293 299 289 258 243 234 213
153 133 230 298 274 282 310 356 73 47 357 128 117 277 205 216 308 3 131 142 245 231 286 142 317 181 230 184 196 148 290 184 130 111 95 116 290 125 199 247 15 120 240 241 131 58 82 175 262 273 256 234 217 198 159 186 219 200 221 317 347 353 2 0 337 317 218 234 232 231 246 242 266 273 276 277 280 276 285 288 292 294 287 277 258 255 210
284 297 129 57 8 354 101 49 307 102 110 321 42 5 349 61 225 174 269 260 314 125 259 318 215 178 299 73 59 310 185 184 116 358 76 197 297 57 93 33 79 316 238 80 77 68 110 221 233 246 226 205 203 184 201 200 248 44 59 65 64 63 63 39 10 300 322 321 285 294 295 283 271 265 262 270 279 301 285 275 267 276 283 285 280 243 224
165 170 15 5 58 305 58 350 303 45 345 44 106 194 258 321 303 58 317 265 226 288 242 143 242 133 232 297 151 243 14 356 51 79 38 100 94 162 72 188 209 233 84 40 61 166 225 232 212 214 206 216 215 196 154 124 134 120 73 39 37 44 34 41 39 24 353 346 352 334 349 321 302 308 304 282 253 250 268 276 277 271 279 286 287 268 233
79 1 29 20 24 276 64 264 352 113 193 251 163 195 163 176 238 182 198 246 122 217 286 69 102 104 201 261 54 6 126 176 330 107 224 129 50 334 122 243 234 65 129 213 266 306 326 272 254 222 202 199 185 137 135 136 145 125 141 19 2 357 13 12 313 307 296 306 294 306 315 307 316 306 301 290 276 237 219 255 270 286 290 290 285 282 248
84 158 85 77 310 307 108 229 344 330 275 156 200 202 182 235 178 226 248 183 166 262 147 190 153 131 247 247 153 212 166 103 93 225 164 79 107 248 234 173 82 85 350 44 191 223 220 232 208 197 195 175 154 160 153 155 150 137 94 64 307 315 301 284 272 271 271 283 290 296 288 297 286 286 288 289 285 284 266 249 244 241 258 280 276 262 257
51 9 90 117 99 273 100 202 234 206 184 216 223 191 201 215 207 203 225 166 201 210 190 241 177 181 163 199 150 342 48 101 150 252 74 76 195 254 4 106 234 179 169 240 240 247 261 246 212 198 179 163 156 158 155 156 159 141 139 155 261 280 296 306 294 291 291 302 301 296 289 280 277 272 275 287 286 275 272 271 270 250 223 240 256 266 265
138 243 92 171 240 195 175 248 227 291 252 217 252 218 225 203 346 299 263 211 203 163 197 157 204 7 298 302 102 191 207 172 98 283 169 186 42 43 21 349 255 239 184 177 229 219 228 229 185 181 181 164 155 154 164 165 178 157 160 170 9 344 324 314 312 302 299 299 296 299 296 295 289 285 278 271 274 277 276 276 267 251 230 236 249 257 246
151 117 153 202 206 204 242 249 24 326 286 304 295 336 155 185 234 252 262 225 178 217 194 142 218 100 276 182 132 106 249 261 145 244 103 57 137 200 163 219 196 281 257 181 211 212 217 194 159 146 149 153 165 161 170 179 167 176 172 105 64 254 273 283 286 286 296 298 304 310 307 300 297 290 284 279 279 277 272 269 269 256 241 241 250 257 261
88 337 22 91 346 303 261 258 336 286 308 328 349 308 264 236 260 268 207 205 226 134 87 35 33 110 240 144 273 343 261 235 183 48 71 207 206 195 99 253 225 194 248 233 214 226 179 142 136 140 158 166 168 166 168 193 172 170 155 153 188 305 274 291 298 304 302 302 302 301 301 308 303 298 291 284 275 276 281 279 268 258 256 247 242 248 249
10 131 230 187 180 225 53 348 204 289 305 295 272 259 204 231 211 253 210 155 105 68 50 191 212 112 45 37 59 12 256 193 104 174 165 201 201 138 173 194 237 211 230 245 209 166 150 156 145 149 164 174 171 174 172 174 176 166 156 122 255 276 294 290 290 298 303 299 297 302 306 304 290 283 282 289 291 287 283 278 265 253 251 253 243 235 240
59 256 269 276 234 231 225 248 257 236 239 254 263 251 175 245 235 241 191 103 74 121 239 219 102 75 77 198 219 201 317 45 221 82 12 274 149 143 211 196 224 214 186 161 151 158 148 150 153 159 165 169 168 175 186 190 170 155 131 226 265 288 290 291 291 292 293 297 299 294 297 297 301 297 299 303 305 305 292 285 283 273 262 258 251 237 232